Location: Goettingen
(51.5300°N, 9.9433°E)
Time: 17:45:31
(UTC+02:00)

ISS - Pass Details

Date: 31 May 2020
Orbit: 417 x 420 km, 51.6° (Epoch: 26 May)

Event Time Altitude Azimuth Distance (km) Brightness Sun altitude
Rises 22:22:20 0° 282° (WNW) 2,367 1.0 -7.0°
Reaches altitude 10° 22:24:52 10° 263° (W) 1,500 -0.5 -7.2°
Maximum altitude 22:27:15 18° 217° (SW) 1,091 -1.8 -7.4°
Drops below altitude 10° 22:29:39 10° 172° (S) 1,494 -1.5 -7.7°
Enters shadow 22:30:04 - 167° (SSE) 1,621 -1.3 -7.7°
